Flag for U.S.A. Weather past 2 weeks in Arlington, Texas, U.S.A.

Now
84 °F

Scattered clouds.


Feels Like: 90 °F
Forecast: 76 / 95 °F
Wind: 14 mph from South

Location: Arlington Municipal Airport

Current Time: Sep 1, 2014 at 10:45:48 AM

Latest Report: Sep 1, 2014 at 9:53 AM


Visibility: 10 mi

Pressure: 29.89 "Hg

Humidity: 67%

Dew point: 72 °F

Location of ArlingtonLocation

Historic Weather in Arlington — Graph

°F

Arlington temperature yesterday

Maximum temperature yesterday: 95 °F (at 3:53 PM)
Minimum temperature yesterday: 75 °F (at 6:53 AM)
Average temperature yesterday: 85 °F

Past Weeks' High & Low Weather Summary

 TemperatureHumidityPressure
High99 °F (Aug 22, 4:53 PM)91% (Aug 18, 5:53 AM)30.04 "Hg (Aug 18, 5:53 AM)
Low71 °F (Aug 17, 11:02 AM)25% (Aug 22, 4:53 PM)29.80 "Hg (Aug 28, 5:53 PM)
Average85 °F58%29.91 "Hg
* Reported Aug 17 9:02 AM — Sep 1 8:53 AM, Arlington, Weather by CustomWeather, © 2014

Note: Actual official high and low records may vary slightly from our data, if they occured in-between our weather recording intervals... More about our weather records

Advertising

Arlington weather history for previous 24 hours

 ConditionsComfort  
Time TempWeatherWind HumidityBarometerVisibility
8:53 AM
Sep 1
80 °FPartly sunny.16 mph76%29.89 "Hg10 mi
7:53 AM77 °FPassing clouds.10 mph82%29.88 "Hg10 mi
6:53 AM77 °FClear.13 mph82%29.86 "Hg10 mi
5:53 AM77 °FClear.13 mph82%29.85 "Hg10 mi
4:53 AM77 °FClear.13 mph82%29.85 "Hg10 mi
3:53 AM78 °FClear.14 mph76%29.86 "Hg10 mi
2:53 AM79 °FClear.13 mph69%29.86 "Hg10 mi
1:53 AM80 °FClear.15 mph67%29.86 "Hg10 mi
12:53 AM81 °FClear.15 mph65%29.86 "Hg10 mi
11:53 PM
Aug 31
83 °FClear.18 mph63%29.85 "Hg10 mi
10:53 PM84 °FClear.15 mph63%29.85 "Hg10 mi
9:53 PM86 °FClear.17 mph59%29.85 "Hg10 mi
8:53 PM88 °FSunny.13 mph57%29.83 "Hg10 mi
7:53 PM90 °FSunny.20 mph50%29.83 "Hg10 mi
6:53 PM94 °FSunny.15 mph38%29.83 "Hg10 mi
5:53 PM95 °FPartly sunny.14 mph39%29.84 "Hg10 mi
4:53 PM94 °FPassing clouds.16 mph40%29.85 "Hg10 mi
3:53 PM95 °FPassing clouds.14 mph40%29.86 "Hg10 mi
2:53 PM94 °FSunny.15 mph43%29.87 "Hg10 mi
1:53 PM93 °FPassing clouds.15 mph46%29.90 "Hg10 mi
12:53 PM91 °FSunny.10 mph49%29.92 "Hg10 mi
11:53 AM89 °FSunny.14 mph53%29.93 "Hg10 mi
10:53 AM86 °FSunny.6 mph63%29.95 "Hg10 mi
Weather by CustomWeather, © 2014

See weather overviewHow to use our weather pages